Home   Weather   Sonthofen   Past weeks

Flag for Germany Past Weather in Sonthofen, Bavaria, Germany — Yesterday and Last 2 Weeks

Now
20 °F

Cold.


Feels Like: 15 °F
Forecast: 15 / 37 °F
Wind: 3 mph from Southwest

Location: Bregenz

Current Time: Jan 22, 2017 at 11:53:14 pm

Latest Report: Jan 22, 2017 at 11:00 pm


Visibility: N/A

Pressure: 30.36 "Hg (27.58 "Hg at 748m altitude)

Humidity: 93%

Dew Point: 18 °F

Location of SonthofenLocation

Past Weather in Sonthofen — Graph

°F

Sonthofen Temperature Yesterday

Maximum temperature yesterday: 24 °F (at 3:00 pm)
Minimum temperature yesterday: 15 °F (at 9:00 am)
Average temperature yesterday: 19 °F

High & Low Weather Summary for the Past Weeks

 TemperatureHumidityPressure
High42 °F (Jan 13, 12:00 am)98% (Jan 12, 10:00 pm)30.59 "Hg (Jan 12, 10:00 pm)
Low10 °F (Jan 19, 7:00 am)59% (Jan 19, 2:00 pm)29.47 "Hg (Jan 13, 1:00 am)
Average27 °F84%30.26 "Hg
* Reported Jan 7 10:00 pm — Jan 22 10:00 pm, Sonthofen, Weather by CustomWeather, © 2017

Note: Actual official high and low records may vary slightly from our data, if they occured in-between our weather recording intervals... More about our weather records

Advertising

Sonthofen Weather History for the Previous 24 Hours

Scroll right to see more
 ConditionsComfort  
Time TempWeatherWind HumidityBarometerVisibility
10:00 pm
Sun, Jan 22
21 °FCold.2 mph92%30.35 "HgN/A
9:00 pm22 °FCold.No wind92%30.34 "HgN/A
8:00 pm21 °FCold.2 mph92%30.34 "HgN/A
7:00 pm21 °FCold.1 mph94%30.34 "HgN/A
6:00 pm21 °FCold.1 mph93%30.33 "HgN/A
5:00 pm21 °FCold.No wind89%30.32 "HgN/A
4:00 pm21 °FCold.1 mph85%30.32 "HgN/A
3:00 pm22 °FCold.2 mph81%30.32 "HgN/A
2:00 pm22 °FCold.1 mph80%30.32 "HgN/A
1:00 pm19 °FCold.2 mph88%30.36 "HgN/A
12:00 pm18 °FCold.2 mph90%30.39 "HgN/A
11:00 am18 °FCold.1 mph91%30.40 "HgN/A
10:00 am17 °FCold.1 mph86%30.41 "HgN/A
9:00 am17 °FCold.No wind92%30.40 "HgN/A
8:00 am17 °FCold.2 mph92%30.40 "HgN/A
7:00 am16 °FCold.2 mph92%30.41 "HgN/A
6:00 am16 °FCold.1 mph89%30.41 "HgN/A
5:00 am18 °FCold.1 mph94%30.41 "HgN/A
4:00 am18 °FCold.1 mph92%30.42 "HgN/A
3:00 am17 °FCold.1 mph82%30.44 "HgN/A
2:00 am18 °FCold.No wind86%30.44 "HgN/A
1:00 am18 °FCold.1 mph89%30.45 "HgN/A
12:00 am18 °FCold.1 mph84%30.46 "HgN/A
11:00 pm
Sat, Jan 21
20 °FCold.1 mph92%30.45 "HgN/A
Weather by CustomWeather, © 2017

See weather overviewHow to use our weather pages